{"data":{"norad_id":57637,"intl_designator":"2023-122F","name":"STARLINK-30311","alt_names":[],"object_type":"PAYLOAD","status":"ACTIVE","operator":null,"country":"US","launch_date":"2023-08-17","launch_site_code":"AFETR","launch_vehicle":null,"mission":null,"orbit_class":"UNKNOWN","rcs_meters":null,"size_class":null,"mass_kg":null,"dimensions":null,"purposes":["comms"],"wikipedia_slug":null,"has_3d_model":false,"image_url":null,"decayed_at":null,"tle_current":{"epoch":"2026-05-25T00:20:29.643072Z","epoch_age_seconds":80797,"freshness":"FRESH","line1":"1 57637U 23122F   26145.01423198  .00001919  00000+0  79253-4 0  9993","line2":"2 57637  43.0027  21.1348 0001314 273.2845  86.7856 15.27576433153883","mean_motion":15.27576433,"eccentricity":0.0001314,"inclination_deg":43.0027,"raan_deg":21.1348,"arg_perigee_deg":273.2845,"mean_anomaly_deg":86.7856,"bstar":7.9253e-5,"rev_number":15388,"period_min":94.266968833238,"perigee_km":482.15821568517,"apogee_km":483.96133819815,"semimajor_km":6861.1967769417,"source":"CELESTRAK","updated_at":"2026-05-25T13:38:18.363100Z"}}}